Kirkville, IA

2:25 AM CST on February 09, 2016 (GMT -0600)
Ottumwa Industrial

Weather History for KOTM - December, 2011

Change the Weather History Date:

Friday, December 16, 2011

  Actual Average Record
Temperature  
Mean Temperature 26 °F 26 °F  
Max Temperature 35 °F 34 °F 67 °F (1939)
Min Temperature 17 °F 17 °F -19 °F (1932)
Degree Days  
Heating Degree Days 39 40  
Month to date heating degree days 554 592  
Since 1 July heating degree days 1750 1890  
Cooling Degree Days 0 0  
Month to date cooling degree days 0 0  
Year to date cooling degree days 1111 938  
Moisture  
Dew Point 20 °F    
Average Humidity 74    
Maximum Humidity 92    
Minimum Humidity 56    
Precipitation  
Precipitation 0.10 in 0.04 in 0.86 in (1940)
Month to date precipitation 2.36 0.81  
Year to date precipitation 34.95 36.51  
Sea Level Pressure  
Sea Level Pressure 30.40 in    
Wind  
Wind Speed 4 mph (West)    
Max Wind Speed 15 mph    
Max Gust Speed 18 mph    
Visibility 10 miles    
Events      
T = Trace of Precipitation, MM = Missing Value Source: NWS Daily Summary

Daily Weather History Graph

Daily Weather History Graph

Search for Another Location

Airport or City:

Trip Planner

Search our weather history database for the weather conditions in past years. The results will help you decide how hot, cold, wet, or windy it might be!

Date:

Astronomy

Dec. 16, 2011 Rise Set
Actual Time 7:28 AM CST 4:42 PM CST
Civil Twilight 6:57 AM CST 5:13 PM CST
Nautical Twilight 6:22 AM CST 5:48 PM CST
Astronomical Twilight 5:49 AM CST 6:21 PM CST
Moon 11:19 PM CST (12/16) 11:11 AM CST (12/16)
Length of Visible Light 10h 16m
Length of Day
9h 13m
Waning Gibbous, 64% of the Moon is Illuminated
Dec 16
Waning Gibbous
Dec 17
Last Quarter
Dec 24
New
Jan 1
First Quarter
Jan 9
Full

Hourly Weather History & Observations

Time (CST) Temp. Windchill Dew Point Humidity Pressure Visibility Wind Dir Wind Speed Gust Speed Precip Events Conditions
12:53 AM 25.0 °F 17.1 °F 21.0 °F 85% 30.39 in 10.0 mi West 6.9 mph - N/A   Clear
1:53 AM 25.0 °F 14.2 °F 19.9 °F 81% 30.39 in 10.0 mi NNW 11.5 mph - N/A   Clear
2:53 AM 24.1 °F 13.7 °F 19.0 °F 81% 30.40 in 10.0 mi NNW 10.4 mph - N/A   Clear
3:53 AM 21.2 °F 10.9 °F 19.4 °F 93% 30.35 in 10.0 mi NNW 9.2 mph - N/A   Clear
4:53 AM 21.0 °F 11.4 °F 18.0 °F 88% 30.40 in 10.0 mi NW 8.1 mph - N/A   Clear
5:53 AM 19.9 °F 13.4 °F 17.1 °F 89% 30.43 in 10.0 mi WNW 4.6 mph - N/A   Clear
6:53 AM 18.0 °F 11.1 °F 15.1 °F 88% 30.44 in 10.0 mi WNW 4.6 mph - N/A   Clear
7:53 AM 18.0 °F 9.8 °F 16.0 °F 92% 30.45 in 10.0 mi NW 5.8 mph - N/A   Clear
8:53 AM 24.1 °F 19.7 °F 19.0 °F 81% 30.45 in 10.0 mi NNW 3.5 mph - N/A   Clear
9:53 AM 26.1 °F - 19.0 °F 75% 30.47 in 10.0 mi Calm Calm - N/A   Clear
10:53 AM 28.0 °F - 19.9 °F 72% 30.47 in 10.0 mi Calm Calm - N/A   Clear
11:53 AM 30.9 °F - 21.0 °F 67% 30.45 in - Calm Calm - N/A   Unknown
12:53 PM 33.1 °F 30.0 °F 21.0 °F 61% 30.43 in 10.0 mi Variable 3.5 mph - 0.10 in   Clear
1:53 PM 33.8 °F 29.6 °F 19.4 °F 56% 30.36 in 10.0 mi SW 4.6 mph - N/A   Clear
2:53 PM 34.0 °F 29.8 °F 19.0 °F 54% 30.38 in 10.0 mi WSW 4.6 mph - N/A   Clear
3:53 PM 32.0 °F - 21.0 °F 64% 30.39 in 10.0 mi Calm Calm - N/A   Clear
4:53 PM 33.1 °F - 19.9 °F 59% 30.39 in 10.0 mi Calm Calm - N/A   Clear
5:53 PM 28.9 °F - 21.9 °F 75% 30.38 in 10.0 mi Calm Calm - N/A   Clear
6:53 PM 30.0 °F - 21.9 °F 72% 30.38 in 10.0 mi Calm Calm - N/A   Scattered Clouds
7:53 PM 27.0 °F - 21.0 °F 78% 30.38 in 10.0 mi Calm Calm - N/A   Mostly Cloudy
8:53 PM 30.0 °F 24.1 °F 24.1 °F 79% 30.37 in 10.0 mi SSE 5.8 mph - N/A   Overcast
9:53 PM 30.9 °F 25.2 °F 24.1 °F 76% 30.36 in 10.0 mi SSW 5.8 mph - N/A   Overcast
10:53 PM 30.0 °F 25.2 °F 24.1 °F 79% 30.35 in 10.0 mi South 4.6 mph - N/A   Overcast
11:53 PM 30.9 °F 25.2 °F 25.0 °F 79% 30.33 in 10.0 mi South 5.8 mph - N/A   Overcast